ROMMA est une association bénévole à but non lucratif. Votre soutien est indispensable : ADHERER à ROMMA ou FAIRE un DON

Taninges - (74, Haute-Savoie)

Vallée du Giffre (635 m)   Longitude: 06° 35' 38" E   Latitude: 46° 06' 21" N Station romma n°98
 

Détail journalier du     <<     >>

Température Humidité Pression Vent Dir Rafale Dir. rafale Ensol.
Heure (°C) (%) (hPa) (km/h) (km/h) (min)
01:00 16.89310184ENE11E0
02:00 16.69310173SE15ENE0
03:00 16.79310174E15E0
04:00 16.69310168SE26SE0
05:00 15.99410161O6NO0
06:00 15.295101603O0
07:00 14.896101603O0
08:00 14.89610171ESE6SE0
09:00 15.59710171SE5SE10
10:00 16.39610172SE6OSO0
11:00 18.49110172O6O10
12:00 19.78710163SSE6SSE0
13:00 22.07610152SSE6OSO0
14:00 22.67310154OSO8OSO0
15:00 24.06810143OSO8O0
16:00 23.87110142SO6O0
17:00 23.67010142ESE5SSE0
18:00 23.57210151ENE3ENE0
19:00 21.87710152ENE5ENE0
20:00 20.58410152ENE6ENE0
21:00 22.361101610ENE29ENE0
22:00 19.38610176E23ENE0
23:00 18.489101705SSE0
minuit 17.49110171SSE5S0

Graphique du 28-08-2019

 

Serveur OMMA